This is the latest recevied weather packets stored in our database for station/object N4XHQ-13. If no packets are shown the sender has not sent any weather packets the latest 10 day(s).
| Time | Temp. | Humidity | Pressure | Rain* | Wind** | Luminosity | Snow |
|---|---|---|---|---|---|---|---|
| 1787771865 | 35.56° C | 39% | 1014.6 hPa | 0 mm | - | 104 W/m² | - |
| 1787771565 | 35.56° C | 38% | 1014.8 hPa | 0 mm | - | 316 W/m² | - |
| 1787771265 | 36.11° C | 38% | 1014.6 hPa | 0 mm | - | 430 W/m² | - |
| 1787770961 | 36.67° C | 37% | 1014.8 hPa | 0 mm | - | 338 W/m² | - |
| 1787770659 | 36.67° C | 37% | 1014.9 hPa | 0 mm | - | 942 W/m² | - |
| 1787770354 | 36.11° C | 39% | 1015 hPa | 0 mm | - | 952 W/m² | - |
| 1787770053 | 36.11° C | 37% | 1014.9 hPa | 0 mm | - | 845 W/m² | - |
| 1787769748 | 36.67° C | 37% | 1015.1 hPa | 0 mm | - | 899 W/m² | - |
| 1787769446 | 36.67° C | 37% | 1015.1 hPa | 0 mm | - | 873 W/m² | - |
| 1787769141 | 36.11° C | 38% | 1014.9 hPa | 0 mm | - | 775 W/m² | - |
| 1787768835 | 35.56° C | 39% | 1015.3 hPa | 0 mm | - | 876 W/m² | - |
| 1787768532 | 34.44° C | 40% | 1015.6 hPa | 0 mm | - | 931 W/m² | - |
| 1787768227 | 33.89° C | 41% | 1015.7 hPa | 0 mm | - | 944 W/m² | - |
| 1787767923 | 33.89° C | 43% | 1015.8 hPa | 0 mm | - | 365 W/m² | - |
| 1787767618 | 34.44° C | 42% | 1016.1 hPa | 0 mm | - | 315 W/m² | - |
| 1787767318 | 34.44° C | 42% | 1016 hPa | 0 mm | - | 276 W/m² | - |
| 1787767017 | 34.44° C | 42% | 1016.3 hPa | 0 mm | - | 211 W/m² | - |
| 1787766716 | 34.44° C | 42% | 1016.3 hPa | 0 mm | - | 163 W/m² | - |
| 1787766416 | 34.44° C | 40% | 1016.3 hPa | 0 mm | - | 182 W/m² | - |
| 1787766115 | 33.89° C | 42% | 1016.4 hPa | 0 mm | - | 282 W/m² | - |
| 1787765811 | 33.89° C | 41% | 1016.7 hPa | 0 mm | - | 356 W/m² | - |
| 1787765508 | 35° C | 41% | 1016.7 hPa | 0 mm | - | 540 W/m² | - |
| 1787765207 | 35° C | 39% | 1016.6 hPa | 0 mm | - | 351 W/m² | - |
| 1787764907 | 35° C | 40% | 1017 hPa | 0 mm | - | 472 W/m² | - |
| 1787764602 | 35° C | 39% | 1016.6 hPa | 0 mm | - | 1004 W/m² | - |
* Rain latest hour (hover to see other rain measurements)
** Current wind speed in m/s (hover to see current wind gust speed)